GFSNGP_con_3kmhel_132.txt.gz
Helicity
58 86 159 149 62 50 58 27 59 43 -3 -18 -17 81 30 -2 -30 -55 -67 50 105 351 440 507 425 358 291 310 306 279 277 296 337 351 338 310 271 272 184 143 140 149 187 175
53 96 154 167 64 45 -4 50 7 -6 -55 22 -6 -25 69 34 -2 -33 -28 20 109 140 417 360 294 315 294 234 259 257 245 270 256 265 288 301 293 248 255 193 119 129 139 170
53 126 209 187 72 15 22 35 -21 -7 -3 32 14 18 17 -1 -15 -31 -30 -56 -10 130 139 216 240 250 179 168 142 147 157 171 198 194 199 219 239 218 245 240 207 122 147 96
73 113 193 96 69 36 17 50 10 -0 4 13 30 -4 -31 -26 -14 -10 -10 -9 -24 44 64 91 120 95 83 87 97 98 113 127 151 165 147 142 140 141 173 197 163 164 111 63
115 117 101 102 53 14 32 45 45 -13 15 7 42 -0 24 11 28 8 4 10 11 28 37 44 45 40 33 40 80 108 133 136 137 145 144 143 137 172 172 157 156 113 197 191
118 133 115 43 83 27 -0 47 50 5 14 11 17 43 72 51 33 37 34 8 22 20 22 25 57 57 32 43 60 109 126 109 102 105 104 113 117 115 136 120 114 122 171 172
125 120 66 69 60 3 -5 11 2 6 10 10 -14 9 15 -6 1 2 29 43 26 19 12 24 73 60 54 53 75 77 78 92 108 121 118 120 106 82 86 83 96 114 116 178
161 145 112 69 34 48 40 6 11 15 16 8 9 8 6 2 -10 -0 21 57 41 -12 19 37 80 60 49 56 66 56 58 71 103 116 114 115 113 109 108 87 71 95 108 110
153 125 82 31 53 38 3 -31 -5 11 12 10 12 2 4 5 -2 1 10 49 5 -4 25 42 67 64 58 67 59 51 56 70 92 105 119 126 132 143 130 115 89 96 109 114
122 102 75 53 55 51 18 -22 -24 -20 6 5 14 14 1 3 6 -15 -34 6 -13 -8 28 54 65 66 49 63 63 35 28 41 53 75 97 123 112 126 151 149 116 110 110 135
123 94 98 68 71 62 46 21 -7 -10 5 15 13 10 -2 4 -1 5 -0 -8 -26 -13 13 39 56 55 53 52 49 35 25 28 39 43 58 44 80 126 129 155 125 91 88 87
140 97 112 49 38 55 54 30 -14 -25 -13 10 11 3 -7 -16 -7 -6 6 15 -0 3 15 31 39 50 78 71 40 36 31 26 31 26 32 38 35 46 141 193 195 166 131 99
91 41 56 46 49 51 34 6 -3 -32 -20 -4 -0 -8 -14 -12 -9 5 -5 3 22 8 10 20 27 37 60 53 27 30 26 26 7 11 11 16 27 32 37 36 105 217 204 160
36 61 83 65 44 64 49 35 31 -0 -14 -10 10 2 -16 -12 -7 2 10 1 2 15 23 38 29 31 49 49 40 24 13 25 6 -0 1 8 15 31 21 33 56 90 119 160
67 73 66 81 90 94 71 47 26 6 -14 -3 4 10 2 9 11 16 7 17 9 23 44 49 51 58 52 40 36 29 16 17 21 22 24 32 31 34 30 39 53 65 79 81
92 95 85 75 47 59 47 71 45 30 15 13 21 31 24 16 12 17 26 25 11 29 47 57 59 79 50 18 28 28 26 36 33 44 64 60 52 44 47 51 53 67 99 118
104 83 72 26 26 36 61 59 54 36 21 19 25 26 28 23 24 31 26 14 3 10 18 39 75 82 61 41 22 25 33 34 31 40 60 58 65 65 55 51 49 58 72 91
115 109 88 70 46 35 41 43 37 33 27 19 20 17 19 25 11 18 18 3 7 19 32 61 70 74 56 37 33 27 32 35 49 65 63 66 60 55 60 61 64 64 73 105
96 101 69 59 49 42 34 35 36 32 34 38 37 26 9 12 14 7 7 -4 14 39 86 90 101 80 84 79 59 61 70 73 78 85 85 89 90 70 63 64 74 86 93 100
96 91 72 57 61 57 46 45 40 43 43 39 39 50 50 48 32 23 2 -10 -1 23 53 62 71 74 83 75 67 58 61 75 86 98 106 95 87 91 84 92 86 88 91 96
59 64 64 57 53 60 60 47 48 55 50 53 49 49 34 24 28 22 23 28 74 80 68 75 79 84 78 79 60 60 68 73 77 85 92 98 101 103 96 92 96 92 92 92
62 68 61 59 53 35 30 40 45 51 67 69 59 53 53 49 40 23 -6 18 52 72 63 77 93 115 99 98 82 78 74 79 82 88 90 95 99 100 94 87 88 91 95 104
64 55 62 65 52 32 22 24 27 39 53 50 48 50 41 26 25 40 48 66 52 63 62 74 99 116 116 101 106 106 110 110 106 105 104 99 87 83 80 82 84 84 87 96
80 73 60 47 43 39 41 11 14 9 13 14 20 15 28 30 27 20 14 28 48 50 51 75 88 116 112 107 112 111 116 114 104 100 94 96 89 85 86 90 91 86 84 96
93 89 90 77 73 54 44 32 44 43 42 41 30 21 20 10 14 11 18 23 36 39 45 70 83 88 77 89 99 104 105 104 98 93 94 90 87 84 82 81 78 79 84 93
79 79 77 64 63 62 63 64 74 57 56 57 34 32 25 19 20 17 17 24 24 27 29 33 40 49 60 67 73 80 81 84 84 80 76 72 70 72 72 72 77 82 89 92
88 86 76 70 66 71 74 76 84 68 48 59 40 10 11 5 8 11 11 11 11 12 16 22 30 34 38 49 59 65 67 68 76 63 60 56 56 54 60 64 69 75 80 85

GFSNGP_con_3kmhel_135.txt.gz
Helicity
42 33 75 62 40 121 143 99 129 106 47 44 -1 -20 -3 -56 -23 -33 -64 -63 14 124 162 397 559 666 672 636 572 400 327 247 336 244 188 118 179 171 226 136 103 139 116 136
72 45 39 50 57 95 69 49 54 66 35 62 -22 -29 13 -1 -36 -17 -20 -43 -13 87 168 164 332 452 320 317 356 280 290 272 239 253 281 236 260 248 218 220 126 92 127 142
85 79 66 59 82 100 76 42 75 71 48 18 17 2 -5 -8 -20 -26 -15 -2 -21 38 158 153 191 184 131 178 169 194 204 231 258 277 281 277 286 256 254 276 282 243 147 129
82 71 86 101 102 64 59 51 75 52 36 -1 -10 -18 19 8 -33 9 3 20 20 2 40 90 89 70 54 69 90 101 134 166 200 214 175 187 165 227 242 255 268 219 238 237
87 93 108 99 83 67 81 75 84 46 36 -8 -3 -19 11 8 -1 9 12 10 17 4 16 23 26 26 29 53 60 83 133 164 179 173 167 150 199 184 213 128 160 158 142 156
100 94 87 95 81 41 28 77 45 28 22 6 -14 -19 6 18 21 12 15 25 28 29 34 21 14 27 51 59 51 75 103 119 129 137 152 159 167 177 174 148 142 136 150 174
82 97 94 99 90 64 86 98 42 34 27 12 -20 -7 4 -5 -11 -20 -3 18 11 22 50 50 23 29 51 88 118 92 79 83 92 116 133 154 140 147 144 144 153 162 152 174
136 126 112 108 86 88 78 48 29 19 16 23 20 20 9 -4 -13 -19 -12 1 18 18 29 22 26 42 52 93 98 73 69 87 91 93 98 118 143 163 167 141 126 137 146 173
100 125 137 75 63 55 61 50 35 29 25 22 27 5 18 14 -5 -21 -23 -12 1 15 17 6 25 43 60 80 69 55 52 77 88 83 92 106 130 175 188 195 166 141 136 125
135 134 115 65 72 55 33 41 31 26 24 17 19 3 -1 7 3 -9 -6 3 8 15 17 7 14 34 49 56 52 40 39 42 47 61 74 104 127 142 167 197 191 178 168 165
129 99 93 78 68 63 52 49 44 28 16 16 -1 -1 -9 -4 13 9 -6 -5 17 19 14 24 24 24 44 63 56 44 38 39 51 51 48 42 60 103 131 175 163 138 136 136
112 102 127 127 71 72 70 68 57 28 4 -1 -11 -4 -4 -8 1 5 3 -1 -2 29 23 22 20 22 35 57 62 49 40 37 38 36 31 29 31 28 80 125 183 215 191 148
110 99 100 84 81 71 63 67 60 36 5 -16 3 6 -0 -8 -1 5 10 15 12 15 42 31 19 29 45 47 35 29 24 34 25 37 44 50 42 26 27 30 71 135 177 174
84 84 54 45 54 79 93 94 67 50 19 24 19 11 1 -4 -8 7 16 14 10 18 22 40 36 41 54 50 30 14 9 21 17 12 20 30 39 30 27 41 52 71 81 120
72 68 62 81 107 117 98 64 59 54 40 38 51 33 16 16 11 15 21 20 12 23 46 50 61 82 69 46 36 35 24 20 16 23 26 23 29 39 38 46 56 61 61 79
83 81 85 98 90 90 71 76 74 72 58 55 51 53 42 24 27 21 25 25 24 36 43 53 59 87 91 65 50 39 34 40 30 24 26 33 27 29 32 31 49 69 79 68
106 79 90 92 91 84 69 72 75 66 61 57 56 55 38 22 26 27 24 14 4 4 21 44 71 87 67 57 45 34 32 39 51 48 47 42 43 43 38 40 38 43 61 69
101 106 105 100 83 56 51 44 48 47 45 45 43 41 43 37 18 19 19 15 18 43 59 74 77 73 74 70 62 45 43 48 51 61 69 75 68 57 49 41 39 44 40 63
96 102 102 98 72 60 54 49 50 51 49 50 57 54 53 43 26 11 5 21 45 70 99 85 91 74 77 82 61 50 51 58 69 75 70 72 79 78 74 67 59 60 61 71
88 79 72 73 78 71 57 54 53 62 60 48 53 60 61 50 38 28 18 31 44 46 58 72 76 81 87 83 66 47 48 53 58 68 74 78 77 72 67 81 81 83 86 84
69 71 75 76 76 77 79 73 83 92 83 79 79 69 56 47 40 42 61 48 73 81 62 72 79 92 89 89 73 69 66 62 66 73 75 76 80 88 85 78 75 71 69 72
76 77 74 74 79 87 85 74 73 63 65 62 51 46 43 56 47 36 26 60 62 81 66 73 81 102 88 91 82 83 80 75 72 69 72 73 67 63 66 70 74 75 80 88
82 74 68 59 54 48 36 39 42 43 41 37 35 33 26 18 20 34 44 57 40 56 53 68 88 105 100 88 94 96 95 90 82 78 73 71 68 65 64 68 70 77 86 93
62 55 58 54 52 50 53 42 39 37 34 28 30 20 21 18 16 14 1 8 24 31 41 62 75 88 74 71 81 87 92 90 84 75 67 68 63 63 67 68 73 76 86 102
69 61 55 59 66 62 59 49 56 56 55 53 50 44 35 25 23 17 14 13 26 24 30 52 66 71 60 63 67 71 72 74 72 67 70 70 67 68 67 65 69 72 78 89
78 89 81 78 74 72 73 66 71 60 56 63 59 52 48 37 32 25 15 14 15 17 17 20 29 35 44 52 57 64 64 68 70 68 64 63 62 62 62 61 63 66 70 75
89 78 73 75 68 70 71 72 65 54 50 52 56 39 43 43 45 37 25 16 12 7 6 7 13 23 25 33 41 47 49 52 67 57 57 56 58 57 57 55 55 57 59 60

GFSNGP_con_3kmhel_138.txt.gz
Helicity
101 106 90 69 72 84 109 75 140 68 72 78 64 18 2 -6 -45 -33 -39 -18 6 -38 64 172 191 498 510 567 495 416 306 319 400 316 428 415 410 323 275 318 255 158 137 206
100 71 50 32 27 59 52 41 40 52 46 184 45 44 19 1 -16 -25 -21 -39 -29 -40 -9 113 125 346 521 530 553 324 345 398 488 263 434 436 369 391 251 292 232 210 229 235
136 87 90 60 -3 59 107 70 73 106 115 57 21 26 20 15 -36 -32 -34 -37 -24 -22 -29 54 128 122 73 232 247 264 169 203 459 527 165 340 289 371 494 397 238 227 287 295
125 100 104 110 104 81 63 47 63 59 63 64 31 24 80 35 -44 -53 -27 -12 1 -0 -11 8 35 75 60 22 26 36 65 140 182 196 216 263 277 287 250 169 183 134 220 269
123 58 110 82 65 82 79 98 69 54 45 55 28 17 120 22 -9 -34 -20 -12 -9 -10 -5 5 52 74 68 57 49 103 151 147 147 178 180 174 207 248 302 277 238 281 229 248
87 104 80 133 99 67 71 118 81 61 47 43 19 38 49 17 6 -9 -19 -18 -2 4 4 6 47 51 41 47 54 67 116 143 130 125 122 138 159 178 175 144 119 224 242 244
83 83 104 93 92 52 103 179 76 62 42 34 21 7 28 -11 -4 -1 -10 -8 -6 -6 8 12 35 51 36 35 64 74 74 85 103 124 124 128 121 139 155 161 161 179 181 185
79 74 81 108 108 110 152 85 78 69 58 42 36 31 30 -8 -7 -3 -6 -0 -1 -8 1 8 24 48 37 34 38 37 34 48 59 100 119 140 152 137 132 132 134 163 187 194
86 120 142 89 116 113 98 88 80 80 73 58 40 33 35 5 -0 3 -3 -10 -2 5 3 9 9 30 44 46 33 27 18 33 42 57 96 123 153 180 172 178 163 157 148 153
93 108 122 115 104 90 85 87 86 80 73 54 39 34 20 4 5 6 4 4 -8 10 16 16 10 23 39 50 53 29 28 18 21 32 43 81 96 118 160 190 155 143 144 139
133 110 113 88 76 89 104 91 92 72 65 55 37 26 10 3 7 3 6 8 7 -1 17 25 19 21 33 47 47 37 32 30 28 24 27 24 42 73 76 115 156 132 127 124
115 165 101 149 107 106 100 97 89 70 57 46 33 25 3 -1 5 10 9 20 15 13 12 35 37 26 33 39 49 50 41 36 27 24 29 24 21 18 57 81 138 178 167 147
109 111 122 126 103 80 79 79 78 80 61 37 48 33 15 -0 12 9 14 24 26 31 22 18 33 45 35 41 45 44 48 42 36 46 46 52 43 37 44 23 44 98 144 161
96 111 103 77 68 77 76 77 71 65 49 54 54 37 26 11 5 14 18 13 16 23 24 21 24 38 53 44 41 44 45 47 35 34 35 35 36 38 28 37 47 53 71 91
75 83 99 97 95 98 82 74 68 63 63 75 71 54 43 31 25 26 27 22 17 16 28 35 44 50 54 52 37 34 37 37 39 34 42 48 50 45 43 39 37 35 30 48
98 89 73 84 93 91 88 85 86 80 76 72 73 71 51 49 42 33 36 36 32 35 38 41 45 56 55 49 44 35 27 44 39 38 40 45 48 50 52 58 58 62 66 74
105 83 77 85 86 87 97 90 73 62 58 63 62 55 54 51 42 39 36 31 23 18 28 35 51 58 55 54 53 40 47 42 47 46 55 54 51 50 50 48 53 57 68 79
93 85 81 88 89 90 86 73 62 64 63 64 55 61 72 61 43 32 33 29 27 30 52 56 56 58 56 56 47 43 49 52 59 58 59 67 67 59 59 55 56 57 57 63
95 103 108 109 98 88 86 85 77 70 64 73 83 80 78 65 54 45 41 45 51 54 72 78 89 78 70 67 51 38 39 45 53 64 67 70 72 74 70 66 69 69 69 73
90 86 86 95 98 94 93 87 85 96 90 91 84 79 72 68 60 52 40 60 65 56 59 77 80 79 85 84 79 54 48 47 48 54 69 72 74 75 71 83 82 84 92 95
78 90 101 107 115 122 123 108 100 98 88 77 74 67 64 59 58 54 48 48 61 67 61 75 82 91 84 88 73 70 71 73 73 68 69 66 65 76 83 87 90 89 86 87
100 107 111 113 115 112 97 95 91 79 68 59 50 40 27 41 29 41 43 44 44 67 51 61 72 100 91 98 93 96 90 82 78 79 83 86 86 88 93 98 102 104 107 112
103 98 100 99 101 102 89 87 85 82 80 73 66 57 48 42 37 32 29 52 45 53 45 51 75 90 83 77 85 93 98 98 93 89 86 85 91 95 99 105 107 110 113 114
89 97 103 88 80 72 75 70 70 73 69 68 64 48 41 48 58 46 43 44 48 33 48 59 71 82 74 67 74 79 85 87 83 80 73 80 79 79 86 90 97 96 99 106
83 89 84 75 69 64 67 72 70 68 63 72 64 59 51 53 54 50 43 45 51 43 43 54 62 61 55 59 65 69 70 74 84 74 73 74 76 80 81 83 91 93 92 98
76 68 71 57 68 67 69 62 70 67 64 69 69 60 59 50 55 48 57 47 53 49 44 40 44 40 40 45 49 55 57 65 65 65 67 67 67 69 71 71 71 76 81 86
94 89 91 90 78 76 75 75 77 76 69 71 77 61 57 52 61 57 55 57 58 52 47 39 37 39 36 38 42 44 46 45 57 59 58 59 62 62 63 63 64 65 66 69

GFSNGP_con_3kmhel_141.txt.gz
Helicity
278 267 226 145 114 69 112 62 83 50 73 92 118 101 57 42 30 36 28 -24 -29 -27 -13 -9 19 111 351 568 434 462 345 293 336 353 336 282 279 386 398 341 322 367 175 217
235 186 167 160 81 71 57 36 36 20 8 171 98 102 74 51 40 34 27 -27 -34 -13 -6 4 -29 10 95 334 450 453 319 263 278 283 320 298 232 284 379 421 360 347 456 284
192 190 170 187 41 60 109 64 48 31 52 46 52 83 80 51 50 34 30 -17 -39 -33 -18 -12 -17 -11 14 77 170 310 315 219 223 210 401 369 250 231 304 300 388 233 327 326
220 271 276 178 75 37 70 71 47 39 80 45 34 36 79 70 60 39 31 1 -28 -29 -17 -6 -2 -10 10 35 17 10 185 211 189 237 417 329 318 280 230 281 306 371 362 234
282 169 195 94 51 100 86 63 79 88 70 49 49 17 98 102 71 47 27 -5 -21 -31 -28 -7 1 4 9 13 54 40 42 73 99 56 145 210 303 206 246 224 219 279 361 295
208 198 180 179 122 130 110 73 135 107 83 68 51 76 127 70 47 42 31 3 -17 -11 -23 -5 -5 6 16 27 39 57 60 54 41 69 106 124 122 126 116 186 210 171 235 217
164 156 138 117 92 77 99 172 148 100 61 61 59 49 44 23 28 40 33 16 -11 -8 -3 -6 -6 7 22 33 64 79 57 40 62 54 60 85 112 143 137 110 97 146 168 188
98 105 113 135 82 120 199 126 108 66 81 68 62 51 33 29 42 53 44 37 13 -9 5 8 9 2 23 37 73 77 76 75 64 59 61 82 99 98 128 123 124 130 149 138
70 86 128 53 138 135 131 130 110 100 112 93 70 53 48 48 55 65 49 35 18 9 1 15 7 8 23 32 51 69 62 62 54 60 55 77 97 117 120 136 98 119 162 165
91 106 122 125 152 136 117 119 116 117 125 88 73 57 48 49 53 59 47 31 20 27 26 13 29 18 17 32 41 39 52 53 55 45 49 46 54 80 95 120 118 108 93 109
122 109 161 97 117 123 138 134 158 130 131 112 74 51 35 47 45 40 36 31 22 20 26 30 27 33 25 37 58 45 38 37 58 38 40 24 24 40 49 64 109 113 121 86
110 152 111 137 140 114 120 133 122 102 83 72 71 50 40 64 61 49 43 35 27 25 27 34 38 28 42 34 45 50 51 42 31 39 37 32 29 20 41 40 72 118 145 142
139 159 154 205 137 133 126 91 77 83 79 82 83 53 60 74 70 49 32 33 26 26 27 32 39 37 29 47 41 42 39 45 39 35 41 41 43 41 39 26 22 52 102 145
133 153 133 121 101 84 65 68 70 71 65 62 64 61 65 50 52 42 35 33 19 17 24 30 36 42 47 40 51 35 38 37 35 36 37 47 48 49 38 42 45 44 54 64
58 59 67 73 69 68 65 64 58 68 82 85 78 71 76 77 56 41 36 31 22 23 26 33 37 50 64 65 43 39 41 46 49 30 27 30 34 32 33 36 36 40 41 79
49 51 52 70 78 78 70 64 76 92 82 75 67 60 56 59 52 49 44 36 27 27 31 34 39 49 56 59 56 29 34 54 57 47 46 49 45 55 59 58 55 58 67 91
47 55 59 61 64 68 92 95 93 86 74 78 66 62 70 63 62 39 31 28 21 19 33 36 40 49 41 38 47 35 37 40 61 65 61 67 63 65 65 68 68 66 64 88
64 71 68 68 87 101 103 94 92 96 91 78 76 77 80 70 53 41 39 33 34 34 43 47 52 55 46 50 47 31 34 40 45 52 58 73 80 69 72 75 81 83 80 78
86 102 110 114 104 107 100 104 101 99 100 96 93 87 80 75 67 59 43 59 62 55 56 56 68 59 64 66 70 38 41 43 49 56 60 72 69 77 95 89 84 88 92 95
98 95 100 112 117 113 119 114 116 113 101 83 62 57 54 56 50 36 28 57 63 50 52 64 70 74 80 84 94 53 55 61 62 60 65 69 78 78 79 90 98 99 102 101
85 96 109 113 123 126 114 93 92 93 84 78 77 65 49 41 37 42 41 42 54 53 48 58 63 67 71 94 82 79 76 72 72 77 83 88 88 89 92 96 93 103 109 112
100 110 113 109 116 118 101 95 90 83 78 75 64 46 38 64 69 72 39 46 42 56 42 47 55 79 74 86 78 86 89 92 88 84 82 87 94 98 99 100 103 102 107 105
111 98 103 106 108 116 107 99 90 83 80 75 69 71 70 68 61 58 55 55 45 40 45 49 56 70 81 69 75 86 92 90 80 73 79 79 83 89 83 94 98 102 113 115
105 96 101 104 104 98 99 89 87 85 79 82 76 58 54 57 74 60 54 53 59 37 70 60 58 67 70 57 67 70 74 83 93 78 78 79 72 70 72 87 90 90 98 104
94 97 99 91 82 77 103 89 88 82 71 84 75 76 65 70 67 66 53 55 62 62 73 78 78 73 61 58 56 59 58 61 63 70 69 67 70 70 75 69 70 83 86 93
85 80 77 61 65 83 84 76 74 80 79 86 88 79 78 71 72 61 71 65 69 69 78 73 77 72 70 62 58 52 48 45 61 54 60 59 62 63 67 68 67 68 73 72
77 87 83 75 69 69 74 77 94 94 80 91 110 88 86 77 83 70 75 79 80 77 78 77 74 74 64 60 58 53 52 49 47 48 47 48 48 49 54 57 58 60 60 64